Powrót do katalogu

STARLINK-31975

AktywnyŁącznośćVLEO
NORAD 59886·PAYLOAD·🇺🇸 United States

Wystrzelony May 28, 2024 z Cape Canaveral Space Force Station

Loading…

Następne Przeloty (najbliższe 24 godziny)

TLE

ŚwieżeSource: CelesTrak SupGP

Epoka: Sep 14, 2026, 21:33 UTC

1 59886C 24100B   26257.89840278 -.00029231  00000+0 -10590-2 0  2573
2 59886  42.9993 136.8845 0001344 270.3442  84.8048 15.27585553    12

Śledź STARLINK-31975 w czasie rzeczywistym z AllMySat

Download on the App Store